GW6837 Weather Reports


time (UTC)temp
C
wind
direction
speed
KPH
gust
KPH
rain 1hr
cm
rain 24hr
cm
rain mn
cm
humidity
%
barometer
mb
20260507154222 11 292 11.3 24.1 0.00 0.00 0.00 50 1009.2
20260507153718 11 268 14.5 27.4 0.00 0.00 0.00 45 1009.2
20260507153215 10 278 25.7 37.0 0.00 0.00 0.00 50 1009.2
20260507152711 11 268 17.7 30.6 0.00 0.00 0.00 50 1009.0
20260507152207 10 241 16.1 24.1 0.00 0.00 0.00 51 1009.3
20260507151703 10 311 19.3 20.9 0.00 0.00 0.00 53 1009.3
20260507151200 10 273 11.3 33.8 0.00 0.00 0.00 55 1009.4
20260507150657 10 267 19.3 37.0 0.00 0.00 0.00 55 1009.2
20260507150154 10 255 24.1 32.2 0.00 0.00 0.00 57 1009.3
20260507145649 10 267 14.5 24.1 0.00 0.00 0.00 60 1009.3
20260507145147 10 280 16.1 29.0 0.00 0.00 0.00 62 1009.3
20260507144643 10 268 11.3 25.7 0.00 0.00 0.00 64 1009.5
20260507144142 9 265 14.5 24.1 0.00 0.00 0.00 65 1009.3
20260507143638 9 261 14.5 24.1 0.00 0.00 0.00 67 1009.3
20260507143135 9 261 17.7 29.0 0.00 0.00 0.00 67 1009.3
20260507142630 9 259 9.7 27.4 0.00 0.00 0.00 71 1009.5
20260507142127 9 282 14.5 22.5 0.00 0.00 0.00 70 1009.2
20260507141623 8 283 12.9 20.9 0.00 0.00 0.00 69 1009.6
20260507141120 8 283 20.9 24.1 0.00 0.00 0.00 70 1009.6
20260507140617 8 290 16.1 19.3 0.00 0.00 0.00 69 1009.5
20260507140114 8 296 24.1 27.4 0.00 0.00 0.00 69 1009.2
20260507135611 8 282 19.3 33.8 0.00 0.00 0.00 68 1009.6
20260507135109 8 264 9.7 30.6 0.00 0.00 0.00 68 1009.5
20260507134605 8 277 20.9 30.6 0.00 0.00 0.00 69 1009.6
20260507134101 8 276 20.9 35.4 0.00 0.00 0.00 71 1009.5
20260507133557 8 282 16.1 30.6 0.00 0.00 0.00 71 1009.5
20260507133055 8 284 11.3 20.9 0.00 0.00 0.00 73 1009.4
20260507132552 8 277 14.5 17.7 0.00 0.00 0.00 73 1009.8
20260507132048 8 268 20.9 30.6 0.00 0.00 0.00 74 1009.7
20260507131545 8 284 16.1 17.7 0.00 0.00 0.00 75 1009.8
20260507131042 8 225 20.9 24.1 0.00 0.00 0.00 75 1009.8
20260507130539 8 282 16.1 24.1 0.00 0.00 0.00 74 1009.9
20260507130037 8 288 19.3 20.9 0.00 0.00 0.00 74 1009.9
20260507125535 8 278 17.7 24.1 0.00 0.00 0.00 73 1009.8
20260507125032 8 243 16.1 20.9 0.00 0.00 0.00 74 1009.6
20260507124529 8 293 8.0 12.9 0.00 0.00 0.00 75 1009.7
20260507124026 8 293 17.7 20.9 0.00 0.00 0.00 74 1009.7
20260507123525 8 276 8.0 14.5 0.00 0.00 0.00 76 1009.6
20260507123021 8 278 9.7 12.9 0.00 0.00 0.00 76 1009.7
20260507122516 8 277 11.3 12.9 0.00 0.00 0.00 76 1009.6
20260507122012 7 283 8.0 11.3 0.00 0.00 0.00 75 1009.7
20260507121508 7 281 9.7 9.7 0.00 0.00 0.00 76 1009.6
20260507121004 7 260 8.0 14.5 0.00 0.00 0.00 76 1009.7
20260507120500 7 264 6.4 11.3 0.00 0.00 0.00 78 1009.8
20260507115957 7 287 9.7 9.7 0.00 0.00 0.00 79 1009.9
20260507115454 7 281 11.3 16.1 0.00 0.00 0.00 78 1009.9
20260507114949 7 274 8.0 11.3 0.00 0.00 0.00 80 1009.8
20260507114446 7 281 8.0 11.3 0.00 0.00 0.00 80 1009.5
20260507113943 7 264 8.0 9.7 0.00 0.00 0.00 82 1009.6
20260507113440 6 242 9.7 9.7 0.00 0.00 0.00 83 1009.7
20260507112937 6 233 8.0 9.7 0.00 0.00 0.00 84 1009.9
20260507112435 6 247 8.0 9.7 0.00 0.00 0.00 83 1009.7
20260507111931 6 305 4.8 6.4 0.00 0.00 0.00 85 1009.5
20260507111429 6 268 8.0 12.9 0.00 0.00 0.00 84 1009.7
20260507110925 6 291 11.3 12.9 0.00 0.00 0.00 84 1009.6
20260507110421 6 293 9.7 14.5 0.00 0.00 0.00 84 1009.5
20260507105918 6 292 9.7 16.1 0.00 0.00 0.00 84 1009.5
20260507105415 6 298 8.0 12.9 0.00 0.00 0.00 83 1009.7
20260507104912 6 284 9.7 14.5 0.00 0.00 0.00 80 1009.6
20260507104408 6 302 8.0 9.7 0.00 0.00 0.00 82 1009.4
20260507103904 6 285 6.4 6.4 0.00 0.00 0.00 83 1009.3
20260507103401 6 302 4.8 6.4 0.00 0.00 0.00 84 1009.4
20260507102857 6 280 6.4 6.4 0.00 0.00 0.00 85 1009.4
20260507102354 5 286 1.6 4.8 0.00 0.00 0.00 87 1009.4
20260507101850 5 274 6.4 8.0 0.00 0.00 0.00 88 1009.7
20260507101350 5 241 6.4 6.4 0.00 0.00 0.00 89 1009.6
20260507100848 5 289 3.2 4.8 0.00 0.00 0.00 90 1009.5
20260507100346 5 20 1.6 3.2 0.00 0.00 0.00 92 1009.6
20260507095844 5 274 4.8 4.8 0.00 0.00 0.00 91 1009.5
20260507095340 5 284 3.2 6.4 0.00 0.00 0.00 90 1009.4
20260507094837 5 299 11.3 12.9 0.00 0.00 0.00 90 1009.3
20260507094333 5 295 11.3 14.5 0.00 0.00 0.00 91 1009.3
20260507093831 5 279 8.0 9.7 0.00 0.00 0.00 91 1009.7
20260507093329 5 280 8.0 11.3 0.00 0.00 0.00 91 1009.5
20260507092826 5 240 8.0 9.7 0.00 0.00 0.00 91 1009.5
20260507092323 5 281 8.0 8.0 0.00 0.00 0.00 90 1009.5
20260507091819 5 278 9.7 14.5 0.00 0.00 0.00 90 1009.5
20260507091316 5 288 11.3 14.5 0.00 0.00 0.00 91 1009.4
20260507090811 5 286 14.5 17.7 0.00 0.00 0.00 91 1009.1
20260507090308 5 312 14.5 16.1 0.00 0.00 0.00 91 1009.3
20260507085805 5 307 14.5 17.7 0.00 0.00 0.00 90 1009.1
20260507085305 5 293 8.0 11.3 0.00 0.00 0.00 91 1009.2
20260507084759 5 296 6.4 6.4 0.00 0.00 0.00 91 1009.3
20260507084255 5 224 0.0 6.4 0.00 0.00 0.00 89 1009.4
20260507083753 6 248 6.4 11.3 0.00 0.00 0.00 88 1009.1
20260507083249 5 291 11.3 14.5 0.00 0.00 0.00 89 1008.9
20260507082745 6 278 9.7 14.5 0.00 0.00 0.00 88 1009.1
20260507082241 6 307 11.3 14.5 0.00 0.00 0.00 88 1008.8
20260507081738 6 314 6.4 8.0 0.00 0.00 0.00 88 1008.9
20260507081234 6 269 6.4 8.0 0.00 0.00 0.00 88 1009.4
20260507080731 6 289 11.3 14.5 0.00 0.00 0.00 88 1009.4
20260507080227 6 278 11.3 17.7 0.00 0.00 0.00 88 1008.9
20260507075723 6 303 17.7 19.3 0.00 0.00 0.00 87 1009.1
20260507075219 6 307 12.9 14.5 0.00 0.00 0.00 88 1009.1
20260507074715 6 282 9.7 12.9 0.00 0.00 0.00 87 1009.0
20260507074214 6 267 9.7 11.3 0.00 0.00 0.00 88 1009.2
20260507073710 6 281 9.7 14.5 0.00 0.00 0.00 87 1009.0
20260507073206 6 281 11.3 14.5 0.00 0.00 0.00 87 1008.8
20260507072705 6 309 9.7 9.7 0.00 0.00 0.00 87 1008.8
20260507072201 6 276 9.7 14.5 0.00 0.00 0.00 87 1008.6
20260507071659 6 345 3.2 8.0 0.00 0.00 0.00 87 1008.6
20260507071155 6 309 8.0 20.9 0.00 0.00 0.00 87 1008.6
20260507070652 6 316 12.9 17.7 0.00 0.00 0.00 87 1008.5
20260507070149 6 320 17.7 22.5 0.00 0.00 0.00 86 1008.4
20260507065645 6 284 11.3 24.1 0.00 0.00 0.00 87 1008.6
20260507065142 6 293 19.3 20.9 0.00 0.00 0.00 87 1008.7
20260507064640 6 285 16.1 24.1 0.00 0.00 0.00 87 1008.8
20260507064138 6 297 14.5 17.7 0.00 0.00 0.00 86 1008.4
20260507063636 6 273 16.1 27.4 0.00 0.00 0.00 85 1008.7
20260507063132 6 282 16.1 22.5 0.00 0.00 0.00 86 1008.6
20260507062629 6 288 17.7 27.4 0.00 0.00 0.00 86 1009.0
20260507062127 6 279 12.9 25.7 0.00 0.00 0.00 87 1008.8
20260507061624 6 283 20.9 27.4 0.00 0.00 0.00 87 1008.3
20260507061122 6 289 11.3 17.7 0.00 0.00 0.00 89 1008.4
20260507060620 6 267 11.3 19.3 0.00 0.00 0.00 89 1008.7
20260507060116 7 242 8.0 20.9 0.00 0.00 0.00 88 1008.6
20260507055612 7 246 22.5 27.4 0.00 0.00 0.00 89 1008.5
20260507055108 7 276 14.5 25.7 0.00 0.00 0.00 90 1008.6
20260507054604 7 287 20.9 25.7 0.00 0.00 0.00 89 1008.5
20260507054101 7 267 14.5 24.1 0.00 0.00 0.00 91 1008.2
20260507053559 7 276 17.7 30.6 0.00 0.00 0.00 95 1008.1
20260507053058 7 270 14.5 27.4 0.00 0.00 0.00 95 1008.0
20260507052555 7 257 11.3 12.9 0.00 0.00 0.00 95 1008.3
20260507052051 7 290 6.4 12.9 0.00 0.00 0.00 95 1008.5
20260507051549 7 255 8.0 11.3 0.00 0.00 0.00 95 1008.3
20260507051046 7 267 6.4 11.3 0.00 0.00 0.00 95 1008.1
20260507050542 7 289 9.7 11.3 0.00 0.00 0.00 94 1008.1
20260507050039 7 257 9.7 12.9 0.00 0.00 0.00 94 1008.4
20260507045536 7 253 4.8 11.3 0.00 0.00 0.00 93 1008.3
20260507045033 7 261 11.3 14.5 0.00 0.00 0.00 93 1008.3
20260507044529 7 256 11.3 19.3 0.00 0.00 0.00 92 1008.3
20260507044027 7 271 12.9 19.3 0.00 0.00 0.00 92 1008.3
20260507043522 7 283 17.7 17.7 0.00 0.00 0.00 93 1008.3
20260507043020 7 271 9.7 24.1 0.00 0.00 0.00 92 1008.3
20260507042516 7 281 9.7 17.7 0.00 0.00 0.00 92 1008.4
20260507042011 7 284 9.7 20.9 0.00 0.00 0.00 92 1008.4
20260507041509 7 316 11.3 14.5 0.00 0.00 0.00 92 1008.2
20260507041005 7 313 11.3 17.7 0.00 0.00 0.00 93 1008.5
20260507040501 7 278 6.4 17.7 0.00 0.00 0.00 93 1008.4
20260507035957 7 282 12.9 17.7 0.00 0.74 0.74 94 1008.4
20260507035454 7 316 22.5 22.5 0.00 0.74 0.74 95 1008.3
20260507034950 7 295 11.3 17.7 0.00 0.74 0.74 95 1008.3
20260507034447 7 312 9.7 14.5 0.00 0.74 0.74 95 1008.1
20260507033945 7 282 9.7 17.7 0.00 0.74 0.74 94 1008.1
20260507033443 7 300 12.9 20.9 0.00 0.74 0.74 94 1008.2
20260507032940 8 278 9.7 19.3 0.00 0.74 0.74 93 1008.1
20260507032437 8 267 17.7 20.9 0.00 0.74 0.74 94 1008.4
20260507031933 8 262 16.1 20.9 0.00 0.74 0.74 94 1008.3
20260507031429 8 268 11.3 17.7 0.05 0.74 0.74 93 1008.5
20260507030926 8 268 14.5 22.5 0.05 0.74 0.74 93 1008.2
20260507030424 8 252 14.5 24.1 0.00 0.71 0.71 93 1008.0
20260507025921 8 274 17.7 20.9 0.05 0.71 0.71 94 1008.1
20260507025418 8 283 20.9 24.1 0.00 0.71 0.71 94 1008.3
20260507024916 8 265 17.7 22.5 0.00 0.71 0.71 94 1008.4
20260507024413 8 268 14.5 20.9 0.00 0.71 0.71 94 1008.2
20260507023908 8 269 12.9 22.5 0.00 0.71 0.71 94 1008.1
20260507023405 8 262 20.9 29.0 0.00 0.71 0.71 94 1008.2
20260507022903 9 270 17.7 24.1 0.00 0.71 0.71 94 1008.0
20260507022359 9 290 16.1 25.7 0.00 0.71 0.71 94 1008.2
20260507021855 9 270 14.5 32.2 0.00 0.71 0.71 94 1007.9
20260507021350 10 251 32.2 35.4 0.05 0.71 0.71 94 1007.9
20260507020848 10 282 24.1 24.1 0.05 0.71 0.71 94 1007.8
20260507020345 10 286 17.7 27.4 0.00 0.71 0.71 94 1007.7
20260507015842 10 286 17.7 24.1 0.00 0.71 0.71 94 1007.7
20260507015340 10 275 14.5 22.5 0.05 0.71 0.71 94 1007.7
20260507014837 10 255 20.9 30.6 0.05 0.71 0.71 94 1007.6
20260507014333 10 265 25.7 30.6 0.00 0.69 0.69 95 1007.6
20260507013830 11 287 17.7 22.5 0.00 0.69 0.69 95 1007.4
20260507013327 11 275 19.3 29.0 0.00 0.69 0.69 96 1007.4
20260507012825 11 277 17.7 30.6 0.00 0.69 0.69 96 1007.6
20260507012320 11 292 19.3 22.5 0.00 0.69 0.69 96 1007.3
20260507011817 11 287 11.3 22.5 0.00 0.69 0.69 96 1007.5
20260507011314 11 277 12.9 19.3 0.00 0.69 0.69 96 1007.5
20260507010814 11 274 11.3 14.5 0.00 0.69 0.69 96 1007.3
20260507010310 11 304 9.7 16.1 0.00 0.69 0.69 96 1007.5
20260507005807 11 309 11.3 14.5 0.00 0.69 0.69 96 1007.2
20260507005305 11 311 11.3 16.1 0.05 0.69 0.69 96 1007.2
20260507004800 11 288 11.3 17.7 0.05 0.69 0.69 96 1007.4
20260507004258 11 306 17.7 19.3 0.00 0.69 0.69 96 1007.1
20260507003754 11 306 14.5 20.9 0.00 0.69 0.69 96 1007.2
20260507003249 11 308 17.7 22.5 0.13 0.69 0.69 96 1007.0
20260507002745 11 282 16.1 25.7 0.30 0.66 0.66 96 1006.9
20260507002242 12 319 20.9 25.7 0.84 0.66 0.66 95 1006.9
20260507001739 12 294 17.7 25.7 0.66 0.61 0.61 95 1006.7
20260507001236 14 280 22.5 22.5 0.00 0.51 0.51 96 1006.7
20260507000732 14 229 16.1 19.3 0.00 0.51 0.51 96 1006.4
20260507000228 14 204 16.1 19.3 0.00 0.51 0.51 96 1006.2
20260506235725 14 236 4.8 19.3 0.00 0.51 0.51 97 1006.1
20260506235220 14 202 9.7 16.1 0.00 0.51 0.51 97 1006.4
20260506234718 14 213 11.3 17.7 0.00 0.51 0.51 97 1006.0
20260506234215 14 241 9.7 17.7 0.00 0.51 0.51 97 1006.2
20260506233712 14 216 17.7 24.1 0.00 0.51 0.51 96 1006.1
20260506233209 14 195 11.3 17.7 0.13 0.51 0.51 96 1006.2
20260506232706 14 231 9.7 16.1 0.13 0.51 0.51 96 1006.2
20260506232200 14 240 11.3 24.1 0.05 0.48 0.48 96 1006.0
20260506231658 14 210 30.6 30.6 0.05 0.48 0.48 96 1006.2
20260506231156 14 225 16.1 27.4 0.05 0.48 0.48 95 1005.8
20260506230652 15 203 14.5 25.7 0.00 0.46 0.46 95 1006.0
20260506230149 15 213 17.7 30.6 0.00 0.46 0.46 95 1005.8
20260506225646 15 195 17.7 27.4 0.00 0.46 0.46 95 1005.7
20260506225143 15 192 19.3 22.5 0.00 0.46 0.46 95 1005.8
20260506224639 15 204 12.9 25.7 0.00 0.46 0.46 94 1005.9
20260506224136 15 199 22.5 29.0 0.00 0.46 0.46 94 1006.0
20260506223632 15 188 12.9 24.1 0.00 0.46 0.46 94 1006.0
20260506223128 15 197 16.1 24.1 0.00 0.46 0.46 94 1005.9
20260506222626 15 196 9.7 19.3 0.00 0.46 0.46 94 1006.1
20260506222122 15 221 14.5 27.4 0.00 0.46 0.46 94 1006.1
20260506221619 15 206 16.1 29.0 0.00 0.46 0.46 94 1006.1
20260506221117 15 197 14.5 30.6 0.00 0.46 0.46 94 1006.2
20260506220614 15 218 9.7 25.7 0.00 0.46 0.46 94 1006.1
20260506220109 15 183 20.9 25.7 0.00 0.46 0.46 94 1006.4
20260506215606 15 195 17.7 22.5 0.00 0.46 0.46 94 1006.2
20260506215101 15 184 22.5 29.0 0.00 0.46 0.46 94 1006.4
20260506214559 15 193 12.9 24.1 0.00 0.46 0.46 94 1006.4
20260506214056 15 207 17.7 27.4 0.00 0.46 0.46 94 1006.4
20260506213554 15 199 24.1 27.4 0.00 0.46 0.46 94 1006.4
20260506213051 15 203 19.3 27.4 0.00 0.46 0.46 94 1006.5
20260506212547 15 207 24.1 32.2 0.00 0.46 0.46 93 1006.4
20260506212042 15 192 27.4 29.0 0.00 0.46 0.46 94 1006.5
20260506211538 15 204 32.2 40.2 0.00 0.46 0.46 94 1006.5
20260506211036 15 179 20.9 24.1 0.05 0.46 0.46 95 1006.5
20260506210532 15 199 20.9 24.1 0.05 0.46 0.46 95 1006.6
20260506210029 15 223 12.9 22.5 0.00 0.46 0.46 95 1006.7
20260506205525 15 177 9.7 12.9 0.00 0.46 0.46 95 1006.5
20260506205021 15 184 14.5 17.7 0.00 0.46 0.46 95 1006.8
20260506204519 15 154 17.7 25.7 0.00 0.46 0.46 95 1006.6
20260506204016 15 174 8.0 14.5 0.00 0.46 0.46 95 1006.8
20260506203514 15 145 9.7 14.5 0.05 0.46 0.46 95 1006.9
20260506203010 15 152 9.7 14.5 0.05 0.46 0.46 95 1006.8
20260506202508 15 137 6.4 14.5 0.00 0.46 0.46 95 1007.0
20260506202004 15 178 8.0 14.5 0.00 0.46 0.46 95 1007.0
20260506201502 15 191 16.1 17.7 0.00 0.46 0.46 95 1007.2
20260506200958 15 168 3.2 8.0 0.00 0.46 0.46 95 1007.3
20260506200454 15 193 14.5 20.9 0.00 0.46 0.46 95 1007.4
20260506195951 15 204 9.7 19.3 0.00 0.46 0.46 95 1007.3
20260506195448 15 194 11.3 14.5 0.00 0.46 0.46 95 1007.2
20260506194944 15 209 12.9 19.3 0.05 0.46 0.46 95 1007.6
20260506194442 15 222 11.3 17.7 0.30 0.46 0.46 95 1007.4
20260506193938 15 220 14.5 24.1 0.36 0.43 0.43 95 1007.7
20260506193436 15 218 14.5 17.7 0.23 0.41 0.41 95 1007.5
20260506192932 15 203 9.7 17.7 0.13 0.38 0.38 94 1007.7
20260506192429 15 201 16.1 22.5 0.13 0.36 0.36 94 1007.6
20260506191926 15 215 20.9 20.9 0.13 0.36 0.36 94 1007.7
20260506191422 15 185 3.2 17.7 0.13 0.33 0.33 94 1007.7
20260506190919 15 192 16.1 20.9 0.13 0.33 0.33 94 1007.8
20260506190416 15 196 11.3 20.9 0.13 0.33 0.33 94 1007.9
20260506185913 15 185 17.7 25.7 0.13 0.30 0.30 93 1008.0
20260506185410 15 169 17.7 24.1 0.13 0.30 0.30 93 1007.8
20260506184907 15 200 8.0 25.7 0.00 0.28 0.28 93 1007.9
20260506184404 15 205 24.1 30.6 0.05 0.28 0.28 93 1007.9
20260506183901 15 197 20.9 30.6 0.05 0.28 0.28 93 1007.9
20260506183356 15 184 17.7 20.9 0.05 0.28 0.28 93 1008.1
20260506182854 15 203 17.7 22.5 0.05 0.28 0.28 93 1008.2
20260506182351 15 208 12.9 17.7 0.13 0.25 0.25 93 1008.2
20260506181848 15 180 12.9 24.1 0.18 0.25 0.25 93 1008.2
20260506181346 15 203 22.5 25.7 0.13 0.23 0.23 92 1008.5
20260506180843 15 215 19.3 24.1 0.18 0.23 0.23 92 1008.7
20260506180339 15 207 24.1 25.7 0.18 0.23 0.23 91 1008.8
20260506175835 15 181 17.7 24.1 0.18 0.20 0.20 91 1008.5
20260506175332 15 210 9.7 22.5 0.23 0.18 0.18 90 1008.6
20260506174829 15 223 12.9 24.1 0.18 0.18 0.18 89 1008.7
20260506174327 15 225 16.1 22.5 0.18 0.15 0.15 89 1008.8
20260506173824 15 221 11.3 19.3 0.18 0.15 0.15 88 1008.8
20260506173321 16 213 9.7 19.3 0.13 0.13 0.13 88 1008.8
20260506172818 16 246 8.0 17.7 0.13 0.10 0.10 88 1008.7
20260506172315 16 234 9.7 16.1 0.18 0.10 0.10 87 1008.9
20260506171812 16 203 14.5 14.5 0.18 0.10 0.10 84 1008.7
20260506171309 16 192 9.7 17.7 0.13 0.08 0.08 83 1008.7
20260506170807 16 179 9.7 9.7 0.13 0.05 0.05 83 1008.6
20260506170303 16 187 6.4 9.7 0.18 0.05 0.05 83 1008.8
20260506165802 16 191 11.3 11.3 0.18 0.05 0.05 82 1008.5
20260506165259 16 198 6.4 6.4 0.13 0.03 0.03 80 1008.7
20260506164755 16 194 4.8 9.7 0.05 0.00 0.00 79 1008.7
20260506164252 16 152 11.3 14.5 0.00 0.00 0.00 78 1008.5
20260506163749 17 152 9.7 9.7 0.00 0.00 0.00 77 1008.7
20260506163244 17 144 9.7 11.3 0.00 0.00 0.00 77 1009.1
20260506162740 17 139 9.7 12.9 0.00 0.00 0.00 77 1008.9
20260506162238 16 155 3.2 8.0 0.00 0.00 0.00 77 1008.9
20260506161735 16 177 6.4 12.9 0.00 0.00 0.00 77 1009.2
20260506161232 17 149 11.3 16.1 0.00 0.00 0.00 76 1009.2
20260506160730 17 144 8.0 9.7 0.00 0.00 0.00 76 1009.2
20260506160226 16 181 6.4 11.3 0.00 0.00 0.00 77 1009.4
20260506155725 16 160 8.0 11.3 0.00 0.00 0.00 77 1009.6
20260506155222 16 224 9.7 9.7 0.00 0.00 0.00 77 1010.1